Miscellaneous Local Product
Issued by NWS Hastings, NE

Home | Current Version | Previous Version | Text Only | Print | Product List | Glossary Off
Versions: 1 2 3 4 5 6 7 8 9 10 11 12 13 14 15 16 17 18 19 20 21 22 23 24 25 26 27 28 29 30 31 32 33 34 35 36 37 38 39 40 41 42 43 44 45 46 47 48 49 50

923
AXUS43 KGID 200002
MISGRI

GID CWA HOURLY WEATHER ROUNDUP
NATIONAL WEATHER SERVICE HASTINGS NE
700 PM CDT WED JUL 19 2017

NOTE: "FAIR" INDICATES FEW OR NO CLOUDS BELOW 12,000 FEET WITH NO
SIGNIFICANT WEATHER AND/OR OBSTRUCTIONS TO VISIBILITY.

...SOUTH CENTRAL NEBRASKA...

CITY           SKY/WX    TMP DP  RH WIND       PRES   REMARKS
GRAND ISLAND   SUNNY     94  74  52 S14       29.89S HX 104
HASTINGS       SUNNY     93  68  43 S13       29.91F HX  97
KEARNEY        SUNNY     93  75  55 S12       29.90F HX 104
ORD            SUNNY     96  69  41 S18G25    29.84F HX 102
YORK           SUNNY     90  75  62 S12       29.91R HX 100
AURORA         SUNNY     92  72  52 S13       29.89F HX  99
LEXINGTON      SUNNY     94  69  45 S13       29.90S HX  99
HOLDREGE       SUNNY     92  68  44 S9        29.91F HX  96
HEBRON         SUNNY     95  69  42 S10       29.91F HX 100

...NEBRASKA PANHANDLE...

CITY           SKY/WX    TMP DP  RH WIND       PRES   REMARKS
CHADRON        SUNNY     94  59  31 NE18G31   29.93S HX  93
ALLIANCE       SUNNY    102  43  13 VRB6      29.93F HX  97
SCOTTSBLUFF    SUNNY    102  39  11 E5        29.93F HX  97
SIDNEY         SUNNY     96  56  26 SE13      29.98F HX  94

...WESTERN AND NORTH CENTRAL NEBRASKA...

CITY           SKY/WX    TMP DP  RH WIND       PRES   REMARKS
VALENTINE      CLOUDY    93  60  33 NE17      29.86R HX  93
AINSWORTH      LGT RAIN  77  69  75 E16G22    29.87R
ONEILL         LGT RAIN  69  67  92 N28G36    29.96R
BROKEN BOW     SUNNY     99  64  31 S25G37    29.85F HX 101
IMPERIAL       SUNNY    102  52  18 S14       29.92F HX  99
NORTH PLATTE   SUNNY    100  58  24 S14G25    29.87F HX  99
MCCOOK         SUNNY    102  58  23 S20       29.90F HX 102

...EASTERN NEBRASKA...

CITY           SKY/WX    TMP DP  RH WIND       PRES   REMARKS
NORFOLK        CLOUDY    90  74  59 S8        29.88R HX  99
SO SIOUX CITY  CLOUDY    91  77  63 S10       29.87F HX 104
TEKAMAH        SUNNY     92  76  59 S10       29.87F HX 104
COLUMBUS       SUNNY     93  75  55 S18G24    29.87F HX 104
ALBION         SUNNY     94  76  57 S8        29.89S HX 106
OMAHA EPPLEY   MOSUNNY   95  78  58 S15       29.91R HX 111
OFFUTT AFB     SUNNY     92  79  64 S15       29.91S HX 109
MILLARD        SUNNY     96  81  62 S13       29.91R HX 118
LINCOLN        SUNNY     94  73  50 S14       29.91R HX 103
NEBRASKA CITY  MOSUNNY   91  82  75 S8        29.94R HX 111
BEATRICE       SUNNY     96  72  46 S12       29.92S HX 104
FALLS CITY     SUNNY     91  77  63 S12       29.93F HX 104

...NORTHERN KANSAS...

CITY           SKY/WX    TMP DP  RH WIND       PRES   REMARKS
GOODLAND       SUNNY     95  57  27 S21G28    29.98F HX  94
HILL CITY      SUNNY    101  55  21 S17G23    29.92F HX  99
NORTON         CLEAR     99  46  16 SE13G21   29.91F HX  95
PHILLIPSBURG   SUNNY    100  52  19 S12G21    29.90F HX  98
SMITH CENTER   SUNNY     95  57  28 S16       29.91F HX  94
HAYS           SUNNY    100  60  26 S21       29.94F HX 100
RUSSELL        SUNNY     99  60  27 S17       29.94F HX  99
CONCORDIA      SUNNY     97  66  36 S16       29.91F HX 100
SALINA         SUNNY    101  59  24 S17G25    29.94F HX 101
TOPEKA         MOSUNNY   93  74  53 S9        29.97F HX 103



USA.gov is the U.S. government's official web portal to all federal, state and local government web resources and services.